datetime,flow volume
1997-09-25,2737.19008
1997-09-26,2737.19008
1997-09-27,2737.19008
1997-09-28,2737.19008
1997-09-29,2737.19008
1997-09-30,2737.19008
1997-10-01,2737.19008
1997-10-02,2737.19008
1997-10-03,2737.19008
1997-10-04,2737.19008
1997-10-05,2737.19008
1997-10-06,2737.19008
1997-10-07,2737.19008
1997-10-08,2737.19008
1997-10-09,2737.19008
1997-10-10,2737.19008
1997-10-11,2737.19008
1997-10-12,2737.19008
1997-10-13,2737.19008
1997-10-14,2737.19008
1997-10-15,2737.19008
1997-10-16,2737.19008
1997-10-17,2737.19008
1997-10-18,2737.19008
1997-10-19,2737.19008
1997-10-20,2737.19008
1997-10-21,2737.19008
1997-10-22,2737.19008
1997-10-23,2737.19008
1997-10-24,2737.19008
1997-10-25,2737.19008
1997-10-26,2737.19008
1997-10-27,2657.85124
1997-10-28,2598.34711
1997-10-29,2538.84298
1997-10-30,2499.17355
1997-10-31,2499.17355
1997-11-01,2499.17355
1997-11-02,2499.17355
1997-11-03,2419.83471
1997-11-04,2241.32231
1997-11-05,1979.50413
1997-11-06,1781.15702
1997-11-07,700.16529
1997-11-08,0.0
1997-11-09,1753.38843
1997-11-10,24000.0
1997-11-11,13011.5703
1997-11-12,0.0
1997-11-13,0.0
1997-11-14,0.0
1997-11-15,0.0
1997-11-16,0.0
1997-11-17,0.0
1997-11-18,0.0
1997-11-19,0.0
1997-11-20,0.0
1997-11-21,0.0
1997-11-22,0.0
1997-11-23,0.0
1997-11-24,0.0
1997-11-25,0.0
1997-11-26,0.0
1997-11-27,0.0
1997-11-28,0.0
1997-11-29,0.0
1997-11-30,0.0
1997-12-01,
1997-12-02,0.0
1997-12-03,0.0
1997-12-04,0.0
1997-12-05,
1997-12-06,
1997-12-07,
1997-12-08,
1997-12-09,
1997-12-10,0.0
1997-12-11,
1997-12-12,0.0
1997-12-13,0.0
1997-12-14,0.0
1997-12-15,0.0
1997-12-16,0.0
1997-12-17,0.0
1997-12-18,0.0
1997-12-19,0.0
1997-12-20,0.0
1997-12-21,0.0
1997-12-22,0.0
1997-12-23,0.0
1997-12-24,0.0
1997-12-25,0.0
1997-12-26,0.0
1997-12-27,0.0
1997-12-28,0.0
1997-12-29,0.0
1997-12-30,0.0
1997-12-31,0.0
1998-01-01,0.0
1998-01-02,0.0
1998-01-03,0.0
1998-01-04,0.0
1998-01-05,0.0
1998-01-06,0.0
1998-01-07,0.0
1998-01-08,0.0
1998-01-09,0.0
1998-01-10,0.0
1998-01-11,0.0
1998-01-12,0.0
1998-01-13,0.0
1998-01-14,0.0
1998-01-15,0.0
1998-01-16,0.0
1998-01-17,0.0
1998-01-18,0.0
1998-01-19,0.0
1998-01-20,0.0
1998-01-21,0.0
1998-01-22,
1998-01-23,
1998-01-24,
1998-01-25,
1998-01-26,
1998-01-27,
1998-01-28,
1998-01-29,0.0
1998-01-30,0.0
1998-01-31,0.0
1998-02-01,0.0
1998-02-02,0.0
1998-02-03,1001.65289
1998-02-04,1.93785
1998-02-05,2.14215
1998-02-06,0.0
1998-02-07,0.0
1998-02-08,1.53322
1998-02-09,1.82281
1998-02-10,0.0
1998-02-11,0.0
1998-02-12,0.0
1998-02-13,10492.562
1998-02-14,24595.0413
1998-02-15,24595.0413
1998-02-16,24595.0413
1998-02-17,24595.0413
1998-02-18,24595.0413
1998-02-19,24595.0413
1998-02-20,24595.0413
1998-02-21,24595.0413
1998-02-22,24595.0413
1998-02-23,24595.0413
1998-02-24,13547.1074
1998-02-25,0.0
1998-02-26,0.0
1998-02-27,0.0
1998-02-28,0.0
1998-03-01,0.0
1998-03-02,0.0
1998-03-03,0.0
1998-03-04,0.0
1998-03-05,0.0
1998-03-06,0.0
1998-03-07,0.0
1998-03-08,0.0
1998-03-09,0.0
1998-03-10,0.0
1998-03-11,257.85124
1998-03-12,2.77686
1998-03-13,2.77686
1998-03-14,2.77686
1998-03-15,2.77686
1998-03-16,2.77686
1998-03-17,2.77686
1998-03-18,2.77686
1998-03-19,2.77686
1998-03-20,2.77686
1998-03-21,2.77686
1998-03-22,2.77686
1998-03-23,2.77686
1998-03-24,2.77686
1998-03-25,2.77686
1998-03-26,2.77686
1998-03-27,2.77686
1998-03-28,2.77686
1998-03-29,2.77686
1998-03-30,950.08264
1998-03-31,2003.30579
1998-04-01,2400.0
1998-04-02,2598.34711
1998-04-03,2677.68595
1998-04-04,2717.35537
1998-04-05,2717.35537
1998-04-06,2717.35537
1998-04-07,2717.35537
1998-04-08,2717.35537
1998-04-09,2697.52066
1998-04-10,2697.52066
1998-04-11,2697.52066
1998-04-12,2697.52066
1998-04-13,2697.52066
1998-04-14,2737.19008
1998-04-15,2856.19835
1998-04-16,2915.70248
1998-04-17,2915.70248
1998-04-18,2915.70248
1998-04-19,2915.70248
1998-04-20,2895.86777
1998-04-21,2935.53719
1998-04-22,3034.71074
1998-04-23,3114.04959
1998-04-24,3173.55372
1998-04-25,3252.89256
1998-04-26,3272.72727
1998-04-27,3292.56198
1998-04-28,3352.06612
1998-04-29,3371.90083
1998-04-30,3371.90083
1998-05-01,3352.06612
1998-05-02,3352.06612
1998-05-03,3352.06612
1998-05-04,3332.2314
1998-05-05,3352.06612
1998-05-06,3352.06612
1998-05-07,3352.06612
1998-05-08,3371.90083
1998-05-09,3391.73554
1998-05-10,3391.73554
1998-05-11,3391.73554
1998-05-12,3371.90083
1998-05-13,3371.90083
1998-05-14,3371.90083
1998-05-15,3371.90083
1998-05-16,3391.73554
1998-05-17,3391.73554
1998-05-18,3391.73554
1998-05-19,3252.89256
1998-05-20,3173.55372
1998-05-21,3193.38843
1998-05-22,3173.55372
1998-05-23,3153.71901
1998-05-24,3173.55372
1998-05-25,3173.55372
1998-05-26,3173.55372
1998-05-27,3173.55372
1998-05-28,3193.38843
1998-05-29,3173.55372
1998-05-30,3173.55372
1998-05-31,3173.55372
1998-06-01,3173.55372
1998-06-02,3173.55372
1998-06-03,3173.55372
1998-06-04,3173.55372
1998-06-05,3193.38843
1998-06-06,3173.55372
1998-06-07,3173.55372
1998-06-08,3173.55372
1998-06-09,3173.55372
1998-06-10,3173.55372
1998-06-11,3173.55372
1998-06-12,3173.55372
1998-06-13,3173.55372
1998-06-14,3173.55372
1998-06-15,3173.55372
1998-06-16,3173.55372
1998-06-17,3173.55372
1998-06-18,3173.55372
1998-06-19,3173.55372
1998-06-20,3173.55372
1998-06-21,3173.55372
1998-06-22,3173.55372
1998-06-23,3193.38843
1998-06-24,3173.55372
1998-06-25,3193.38843
1998-06-26,3213.22314
1998-06-27,3213.22314
1998-06-28,3213.22314
1998-06-29,3213.22314
1998-06-30,3213.22314
1998-07-01,3213.22314
1998-07-02,3213.22314
1998-07-03,3213.22314
1998-07-04,3213.22314
1998-07-05,3213.22314
1998-07-06,3213.22314
1998-07-07,3213.22314
1998-07-08,3213.22314
1998-07-09,3213.22314
1998-07-10,3193.38843
1998-07-11,3193.38843
1998-07-12,3193.38843
1998-07-13,3193.38843
1998-07-14,3193.38843
1998-07-15,3193.38843
1998-07-16,3193.38843
1998-07-17,3193.38843
1998-07-18,3193.38843
1998-07-19,3193.38843
1998-07-20,3193.38843
1998-07-21,3193.38843
1998-07-22,3193.38843
1998-07-23,3193.38843
1998-07-24,3173.55372
1998-07-25,3173.55372
1998-07-26,3173.55372
1998-07-27,3153.71901
1998-07-28,3173.55372
1998-07-29,3173.55372
1998-07-30,3153.71901
1998-07-31,3114.04959
1998-08-01,3114.04959
1998-08-02,3114.04959
1998-08-03,3153.71901
1998-08-04,3173.55372
1998-08-05,3173.55372
1998-08-06,3173.55372
1998-08-07,3173.55372
1998-08-08,3173.55372
1998-08-09,3173.55372
1998-08-10,3173.55372
1998-08-11,3173.55372
1998-08-12,3173.55372
1998-08-13,3173.55372
1998-08-14,3173.55372
1998-08-15,3173.55372
1998-08-16,3173.55372
1998-08-17,3173.55372
1998-08-18,3173.55372
1998-08-19,3173.55372
1998-08-20,3173.55372
1998-08-21,3173.55372
1998-08-22,3173.55372
1998-08-23,3173.55372
1998-08-24,3173.55372
1998-08-25,3173.55372
1998-08-26,3173.55372
1998-08-27,3173.55372
1998-08-28,3173.55372
1998-08-29,3193.38843
1998-08-30,3193.38843
1998-08-31,3193.38843
1998-09-01,3193.38843
1998-09-02,3193.38843
1998-09-03,3193.38843
1998-09-04,3193.38843
1998-09-05,3193.38843
1998-09-06,3193.38843
1998-09-07,3193.38843
1998-09-08,3193.38843
1998-09-09,3193.38843
1998-09-10,3193.38843
1998-09-11,3173.55372
1998-09-12,3173.55372
1998-09-13,3153.71901
1998-09-14,3114.04959
1998-09-15,3054.54545
1998-09-16,3034.71074
1998-09-17,3034.71074
1998-09-18,3034.71074
1998-09-19,3034.71074
1998-09-20,3034.71074
1998-09-21,3034.71074
1998-09-22,3074.38017
1998-09-23,3094.21488
1998-09-24,3094.21488
1998-09-25,3094.21488
1998-09-26,3094.21488
1998-09-27,3094.21488
1998-09-28,3094.21488
1998-09-29,3094.21488
1998-09-30,3094.21488
1998-10-01,3094.21488
1998-10-02,3094.21488
1998-10-03,3094.21488
1998-10-04,3094.21488
1998-10-05,3094.21488
1998-10-06,3074.38017
1998-10-07,3054.54545
1998-10-08,3054.54545
1998-10-09,3054.54545
1998-10-10,3054.54545
1998-10-11,3054.54545
1998-10-12,3054.54545
1998-10-13,3054.54545
1998-10-14,3054.54545
1998-10-15,3054.54545
1998-10-16,3054.54545
1998-10-17,3054.54545
1998-10-18,3054.54545
1998-10-19,3054.54545
1998-10-20,3054.54545
1998-10-21,3054.54545
1998-10-22,3054.54545
1998-10-23,3054.54545
1998-10-24,3054.54545
1998-10-25,3054.54545
1998-10-26,2955.3719
1998-10-27,2836.36364
1998-10-28,2796.69421
1998-10-29,2796.69421
1998-10-30,2796.69421
1998-10-31,2757.02479
1998-11-01,2677.68595
1998-11-02,2578.5124
1998-11-03,2380.16529
1998-11-04,2142.14876
1998-11-05,1918.01653
1998-11-06,1334.87603
1998-11-07,1063.1405
1998-11-08,1021.4876
1998-11-09,1015.53719
1998-11-10,1013.55372
1998-11-11,1247.60331
1998-11-12,3074.38017
1998-11-13,4323.96694
1998-11-14,4323.96694
1998-11-15,4323.96694
1998-11-16,10988.4298
1998-11-17,21024.7934
1998-11-18,21024.7934
1998-11-19,21024.7934
1998-11-20,21024.7934
1998-11-21,21024.7934
1998-11-22,21024.7934
1998-11-23,21024.7934
1998-11-24,12872.7273
1998-11-25,1961.65289
1998-11-26,1963.63636
1998-11-27,1959.66942
1998-11-28,1959.66942
1998-11-29,1959.66942
1998-11-30,918.34711
1998-12-01,0.0
1998-12-02,0.0
1998-12-03,0.0
1998-12-04,0.0
1998-12-05,0.0
1998-12-06,0.0
1998-12-07,1106.77686
1998-12-08,1612.56198
1998-12-09,1600.66116
1998-12-10,1707.7686
1998-12-11,1731.57025
1998-12-12,1715.70248
1998-12-13,1719.66942
1998-12-14,1715.70248
1998-12-15,1674.04959
1998-12-16,1618.5124
1998-12-17,1495.53719
1998-12-18,1449.91736
1998-12-19,1469.75207
1998-12-20,1465.78512
1998-12-21,1539.17355
1998-12-22,1650.24793
1998-12-23,1568.92562
1998-12-24,1521.32231
1998-12-25,1564.95868
1998-12-26,1555.04132
1998-12-27,1608.59504
1998-12-28,1549.09091
1998-12-29,1477.68595
1998-12-30,1481.65289
1998-12-31,1432.06612
1999-01-01,1317.02479
1999-01-02,1332.89256
1999-01-03,1334.87603
1999-01-04,1344.79339
1999-01-05,1293.22314
1999-01-06,1319.00826
1999-01-07,1340.82645
1999-01-08,1352.72727
1999-01-09,1366.61157
1999-01-10,1344.79339
1999-01-11,1402.31405
1999-01-12,1374.54545
1999-01-13,1404.29752
1999-01-14,1420.16529
1999-01-15,1445.95041
1999-01-16,1432.06612
1999-01-17,1434.04959
1999-01-18,1315.04132
1999-01-19,1305.12397
1999-01-20,1285.28926
1999-01-21,1231.73554
1999-01-22,1235.70248
1999-01-23,1225.78512
1999-01-24,1235.70248
1999-01-25,1237.68595
1999-01-26,1241.65289
1999-01-27,1249.58678
1999-01-28,1257.52066
1999-01-29,1281.32231
1999-01-30,1370.57851
1999-01-31,1368.59504
1999-02-01,1368.59504
1999-02-02,1374.54545
1999-02-03,1372.56198
1999-02-04,1374.54545
1999-02-05,1398.34711
1999-02-06,1416.19835
1999-02-07,1414.21488
1999-02-08,1428.09917
1999-02-09,1461.81818
1999-02-10,1457.85124
1999-02-11,1451.90083
1999-02-12,1434.04959
1999-02-13,1416.19835
1999-02-14,1424.13223
1999-02-15,1436.03306
1999-02-16,1440.0
1999-02-17,1432.06612
1999-02-18,1436.03306
1999-02-19,1432.06612
1999-02-20,1436.03306
1999-02-21,1430.08264
1999-02-22,1434.04959
1999-02-23,1436.03306
1999-02-24,1424.13223
1999-02-25,1432.06612
1999-02-26,1436.03306
1999-02-27,1436.03306
1999-02-28,1436.03306
1999-03-01,1434.04959
1999-03-02,1438.01653
1999-03-03,1441.98347
1999-03-04,1438.01653
1999-03-05,1186.1157
1999-03-06,971.90083
1999-03-07,888.59504
1999-03-08,840.99174
1999-03-09,833.05785
1999-03-10,833.05785
1999-03-11,833.05785
1999-03-12,1098.84298
1999-03-13,1428.09917
1999-03-14,1422.14876
1999-03-15,1420.16529
1999-03-16,1424.13223
1999-03-17,1426.1157
1999-03-18,1440.0
1999-03-19,1457.85124
1999-03-20,1465.78512
1999-03-21,1473.71901
1999-03-22,1650.24793
1999-03-23,1858.5124
1999-03-24,2023.1405
1999-03-25,2221.4876
1999-03-26,2419.83471
1999-03-27,2519.00826
1999-03-28,2519.00826
1999-03-29,2677.68595
1999-03-30,2737.19008
1999-03-31,2737.19008
1999-04-01,2737.19008
1999-04-02,2737.19008
1999-04-03,2757.02479
1999-04-04,2757.02479
1999-04-05,2757.02479
1999-04-06,2757.02479
1999-04-07,2737.19008
1999-04-08,2737.19008
1999-04-09,2856.19835
1999-04-10,3054.54545
1999-04-11,3094.21488
1999-04-12,2876.03306
1999-04-13,2757.02479
1999-04-14,2657.85124
1999-04-15,2836.36364
1999-04-16,2836.36364
1999-04-17,2856.19835
1999-04-18,2895.86777
1999-04-19,2895.86777
1999-04-20,2895.86777
1999-04-21,2955.3719
1999-04-22,3074.38017
1999-04-23,3133.8843
1999-04-24,3153.71901
1999-04-25,3054.54545
1999-04-26,2975.20661
1999-04-27,2975.20661
1999-04-28,2975.20661
1999-04-29,2955.3719
1999-04-30,2955.3719
1999-05-01,2935.53719
1999-05-02,2935.53719
1999-05-03,2935.53719
1999-05-04,2935.53719
1999-05-05,2935.53719
1999-05-06,2935.53719
1999-05-07,2955.3719
1999-05-08,2955.3719
1999-05-09,2955.3719
1999-05-10,2955.3719
1999-05-11,2955.3719
1999-05-12,3014.87603
1999-05-13,3034.71074
1999-05-14,3034.71074
1999-05-15,3034.71074
1999-05-16,3034.71074
1999-05-17,3034.71074
1999-05-18,3094.21488
1999-05-19,3114.04959
1999-05-20,3114.04959
1999-05-21,1521.32231
1999-05-22,0.0
1999-05-23,0.0
1999-05-24,0.0
1999-05-25,0.0
1999-05-26,2062.80992
1999-05-27,3133.8843
1999-05-28,3173.55372
1999-05-29,3173.55372
1999-05-30,3173.55372
1999-05-31,3173.55372
1999-06-01,3153.71901
1999-06-02,3153.71901
1999-06-03,3153.71901
1999-06-04,3153.71901
1999-06-05,3153.71901
1999-06-06,3153.71901
1999-06-07,3153.71901
1999-06-08,3153.71901
1999-06-09,3193.38843
1999-06-10,3173.55372
1999-06-11,3173.55372
1999-06-12,3173.55372
1999-06-13,3173.55372
1999-06-14,3173.55372
1999-06-15,3193.38843
1999-06-16,3173.55372
1999-06-17,3173.55372
1999-06-18,3173.55372
1999-06-19,3173.55372
1999-06-20,3173.55372
1999-06-21,3173.55372
1999-06-22,3173.55372
1999-06-23,3173.55372
1999-06-24,3173.55372
1999-06-25,3173.55372
1999-06-26,3173.55372
1999-06-27,3173.55372
1999-06-28,3173.55372
1999-06-29,3173.55372
1999-06-30,3193.38843
1999-07-01,3193.38843
1999-07-02,3193.38843
1999-07-03,3173.55372
1999-07-04,3173.55372
1999-07-05,3173.55372
1999-07-06,3193.38843
1999-07-07,3193.38843
1999-07-08,3173.55372
1999-07-09,3173.55372
1999-07-10,3173.55372
1999-07-11,3173.55372
1999-07-12,3193.38843
1999-07-13,3193.38843
1999-07-14,3173.55372
1999-07-15,3173.55372
1999-07-16,3173.55372
1999-07-17,3193.38843
1999-07-18,3173.55372
1999-07-19,3193.38843
1999-07-20,3193.38843
1999-07-21,3193.38843
1999-07-22,3193.38843
1999-07-23,3193.38843
1999-07-24,3193.38843
1999-07-25,3193.38843
1999-07-26,3193.38843
1999-07-27,3173.55372
1999-07-28,3193.38843
1999-07-29,3193.38843
1999-07-30,3193.38843
1999-07-31,3193.38843
1999-08-01,3173.55372
1999-08-02,3173.55372
1999-08-03,3193.38843
1999-08-04,3173.55372
1999-08-05,3173.55372
1999-08-06,3193.38843
1999-08-07,3193.38843
1999-08-08,3193.38843
1999-08-09,3193.38843
1999-08-10,3193.38843
1999-08-11,3074.38017
1999-08-12,3014.87603
1999-08-13,3014.87603
1999-08-14,2975.20661
1999-08-15,2975.20661
1999-08-16,2975.20661
1999-08-17,2975.20661
1999-08-18,3014.87603
1999-08-19,3054.54545
1999-08-20,3054.54545
1999-08-21,3054.54545
1999-08-22,3054.54545
1999-08-23,3054.54545
1999-08-24,3034.71074
1999-08-25,3014.87603
1999-08-26,3014.87603
1999-08-27,3014.87603
1999-08-28,3014.87603
1999-08-29,3014.87603
1999-08-30,3014.87603
1999-08-31,3014.87603
1999-09-01,3014.87603
1999-09-02,3034.71074
1999-09-03,2975.20661
1999-09-04,2935.53719
1999-09-05,2935.53719
1999-09-06,2935.53719
1999-09-07,2935.53719
1999-09-08,2935.53719
1999-09-09,2935.53719
1999-09-10,2935.53719
1999-09-11,2935.53719
1999-09-12,2935.53719
1999-09-13,2935.53719
1999-09-14,2935.53719
1999-09-15,2935.53719
1999-09-16,2915.70248
1999-09-17,2935.53719
1999-09-18,2935.53719
1999-09-19,2915.70248
1999-09-20,2915.70248
1999-09-21,2915.70248
1999-09-22,2915.70248
1999-09-23,2895.86777
1999-09-24,2856.19835
1999-09-25,2856.19835
1999-09-26,2856.19835
1999-09-27,2856.19835
1999-09-28,2836.36364
1999-09-29,2836.36364
1999-09-30,2836.36364
1999-10-01,2856.19835
1999-10-02,2836.36364
1999-10-03,2856.19835
1999-10-04,2856.19835
1999-10-05,2836.36364
1999-10-06,2856.19835
1999-10-07,2836.36364
1999-10-08,2836.36364
1999-10-09,2836.36364
1999-10-10,2836.36364
1999-10-11,2856.19835
1999-10-12,2836.36364
1999-10-13,2836.36364
1999-10-14,2856.19835
1999-10-15,2856.19835
1999-10-16,2856.19835
1999-10-17,2856.19835
1999-10-18,2836.36364
1999-10-19,2836.36364
1999-10-20,2836.36364
1999-10-21,2856.19835
1999-10-22,2757.02479
1999-10-23,2717.35537
1999-10-24,2697.52066
1999-10-25,2697.52066
1999-10-26,2697.52066
1999-10-27,2697.52066
1999-10-28,2697.52066
1999-10-29,2697.52066
1999-10-30,2697.52066
1999-10-31,2697.52066
1999-11-01,2598.34711
1999-11-02,2400.0
1999-11-03,2201.65289
1999-11-04,2003.30579
1999-11-05,1376.52893
1999-11-06,1057.19008
1999-11-07,1055.20661
1999-11-08,1053.22314
1999-11-09,1053.22314
1999-11-10,7259.50413
1999-11-11,21024.7934
1999-11-12,21024.7934
1999-11-13,21024.7934
1999-11-14,21024.7934
1999-11-15,21024.7934
1999-11-16,21024.7934
1999-11-17,21024.7934
1999-11-18,8985.12397
1999-11-19,1.67802
1999-11-20,2.77686
1999-11-21,2.77686
1999-11-22,1.15636
1999-11-23,668.42975
1999-11-24,1568.92562
1999-11-25,1557.02479
1999-11-26,1549.09091
1999-11-27,1570.90909
1999-11-28,1586.77686
1999-11-29,1586.77686
1999-11-30,1580.82645
1999-12-01,1584.79339
1999-12-02,1588.76033
1999-12-03,1590.7438
1999-12-04,1590.7438
1999-12-05,1586.77686
1999-12-06,1576.8595
1999-12-07,1570.90909
1999-12-08,1582.80992
1999-12-09,1590.7438
1999-12-10,1592.72727
1999-12-11,1570.90909
1999-12-12,1586.77686
1999-12-13,1576.8595
1999-12-14,1660.16529
1999-12-15,1783.1405
1999-12-16,1713.71901
1999-12-17,1680.0
1999-12-18,1785.12397
1999-12-19,1802.97521
1999-12-20,1761.32231
1999-12-21,1727.60331
1999-12-22,1799.00826
1999-12-23,1804.95868
1999-12-24,1797.02479
1999-12-25,1822.80992
1999-12-26,1701.81818
1999-12-27,1680.0
1999-12-28,1678.01653
1999-12-29,1697.85124
1999-12-30,1709.75207
1999-12-31,1668.09917
2000-01-01,1666.1157
2000-01-02,1642.31405
2000-01-03,1769.2562
2000-01-04,1793.05785
2000-01-05,
2000-01-06,1685.95041
2000-01-07,1725.61983
2000-01-08,771.57025
2000-01-09,1626.44628
2000-01-10,1418.18182
2000-01-11,1071.07438
2000-01-12,503.80165
2000-01-13,1170.24793
2000-01-14,
2000-01-15,
2000-01-16,
2000-01-17,
2000-01-18,
2000-01-19,
2000-01-20,
2000-01-21,
2000-01-22,
2000-01-23,
2000-01-24,
2000-01-25,
2000-01-26,
2000-01-27,
2000-01-28,
2000-01-29,
2000-01-30,
2000-01-31,
2000-02-01,
2000-02-02,
2000-02-03,
2000-02-04,
2000-02-05,
2000-02-06,
2000-02-07,
2000-02-08,
2000-02-09,
2000-02-10,
2000-02-11,
2000-02-12,
2000-02-13,
2000-02-14,
2000-02-15,
2000-02-16,
2000-02-17,
2000-02-18,
2000-02-19,
2000-02-20,
2000-02-21,
2000-02-22,
2000-02-23,
2000-02-24,
2000-02-25,
2000-02-26,
2000-02-27,
2000-02-28,
2000-02-29,
2000-03-01,
2000-03-02,
2000-03-03,
2000-03-04,
2000-03-05,
2000-03-06,
2000-03-07,
2000-03-08,
2000-03-09,
2000-03-10,
2000-03-11,
2000-03-12,
2000-03-13,
2000-03-14,331.23967
2000-03-15,
2000-03-16,1128.59504
2000-03-17,
2000-03-18,92.2314
2000-03-19,
2000-03-20,
2000-03-21,255.86777
2000-03-22,382.80992
2000-03-23,
2000-03-24,
2000-03-25,
2000-03-26,
2000-03-27,533.55372
2000-03-28,1676.03306
2000-03-29,1914.04959
2000-03-30,2221.4876
2000-03-31,2340.49587
2000-04-01,
2000-04-02,
2000-04-03,
2000-04-04,2340.49587
2000-04-05,2400.0
2000-04-06,2261.15702
2000-04-07,2538.84298
2000-04-08,2657.85124
2000-04-09,2657.85124
2000-04-10,2776.8595
2000-04-11,2995.04132
2000-04-12,3074.38017
2000-04-13,3094.21488
2000-04-14,3153.71901
2000-04-15,3173.55372
2000-04-16,3173.55372
2000-04-17,3173.55372
2000-04-18,3173.55372
2000-04-19,3193.38843
2000-04-20,3193.38843
2000-04-21,3173.55372
2000-04-22,3173.55372
2000-04-23,3193.38843
2000-04-24,3193.38843
2000-04-25,3193.38843
2000-04-26,3193.38843
2000-04-27,3193.38843
2000-04-28,3193.38843
2000-04-29,2816.52893
2000-04-30,2538.84298
2000-05-01,3193.38843
2000-05-02,
2000-05-03,
2000-05-04,
2000-05-05,3213.22314
2000-05-06,3213.22314
2000-05-07,3193.38843
2000-05-08,3173.55372
2000-05-09,3133.8843
2000-05-10,3054.54545
2000-05-11,3153.71901
2000-05-12,3213.22314
2000-05-13,3094.21488
2000-05-14,3014.87603
2000-05-15,3054.54545
2000-05-16,3094.21488
2000-05-17,3133.8843
2000-05-18,3133.8843
2000-05-19,3133.8843
2000-05-20,3133.8843
2000-05-21,3133.8843
2000-05-22,2995.04132
2000-05-23,2975.20661
2000-05-24,3014.87603
2000-05-25,2935.53719
2000-05-26,2955.3719
2000-05-27,2935.53719
2000-05-28,2935.53719
2000-05-29,2935.53719
2000-05-30,2955.3719
2000-05-31,2975.20661
2000-06-01,2995.04132
2000-06-02,2935.53719
2000-06-03,2955.3719
2000-06-04,2975.20661
2000-06-05,2995.04132
2000-06-06,2955.3719
2000-06-07,2935.53719
2000-06-08,2935.53719
2000-06-09,2935.53719
2000-06-10,2935.53719
2000-06-11,2955.3719
2000-06-12,2955.3719
2000-06-13,2955.3719
2000-06-14,2955.3719
2000-06-15,2856.19835
2000-06-16,1348.76033
2000-06-17,595.04132
2000-06-18,2102.47934
2000-06-19,2757.02479
2000-06-20,983.80165
2000-06-21,285.61983
2000-06-22,2003.30579
2000-06-23,1084.95868
2000-06-24,2757.02479
2000-06-25,2915.70248
2000-06-26,
2000-06-27,
2000-06-28,
2000-06-29,1422.14876
2000-06-30,3193.38843
2000-07-01,3133.8843
2000-07-02,3193.38843
2000-07-03,3193.38843
2000-07-04,3193.38843
2000-07-05,3193.38843
2000-07-06,3193.38843
2000-07-07,3193.38843
2000-07-08,3193.38843
2000-07-09,3213.22314
2000-07-10,2181.81818
2000-07-11,
2000-07-12,1634.38017
2000-07-13,3173.55372
2000-07-14,3173.55372
2000-07-15,3153.71901
2000-07-16,3173.55372
2000-07-17,
2000-07-18,
2000-07-19,1428.09917
2000-07-20,3193.38843
2000-07-21,3153.71901
2000-07-22,3133.8843
2000-07-23,3014.87603
2000-07-24,3114.04959
2000-07-25,2915.70248
2000-07-26,3133.8843
2000-07-27,3133.8843
2000-07-28,3133.8843
2000-07-29,3133.8843
2000-07-30,3133.8843
2000-07-31,3133.8843
2000-08-01,3133.8843
2000-08-02,3114.04959
2000-08-03,3114.04959
2000-08-04,3133.8843
2000-08-05,3133.8843
2000-08-06,3133.8843
2000-08-07,3133.8843
2000-08-08,3133.8843
2000-08-09,3133.8843
2000-08-10,3133.8843
2000-08-11,3133.8843
2000-08-12,3133.8843
2000-08-13,3133.8843
2000-08-14,3133.8843
2000-08-15,3133.8843
2000-08-16,3133.8843
2000-08-17,3133.8843
2000-08-18,3153.71901
2000-08-19,3153.71901
2000-08-20,3133.8843
2000-08-21,3153.71901
2000-08-22,3173.55372
2000-08-23,3193.38843
2000-08-24,3173.55372
2000-08-25,3173.55372
2000-08-26,3153.71901
2000-08-27,3173.55372
2000-08-28,3153.71901
2000-08-29,3153.71901
2000-08-30,3133.8843
2000-08-31,3074.38017
2000-09-01,3054.54545
2000-09-02,3054.54545
2000-09-03,3054.54545
2000-09-04,3054.54545
2000-09-05,3054.54545
2000-09-06,3034.71074
2000-09-07,3014.87603
2000-09-08,3014.87603
2000-09-09,3034.71074
2000-09-10,3014.87603
2000-09-11,2995.04132
2000-09-12,3014.87603
2000-09-13,3014.87603
2000-09-14,3034.71074
2000-09-15,3094.21488
2000-09-16,3114.04959
2000-09-17,3114.04959
2000-09-18,3133.8843
2000-09-19,3133.8843
2000-09-20,3133.8843
2000-09-21,3133.8843
2000-09-22,3133.8843
2000-09-23,3094.21488
2000-09-24,3034.71074
2000-09-25,2995.04132
2000-09-26,2955.3719
2000-09-27,2955.3719
2000-09-28,2915.70248
2000-09-29,2895.86777
2000-09-30,2895.86777
2000-10-01,2895.86777
2000-10-02,2895.86777
2000-10-03,2955.3719
2000-10-04,2975.20661
2000-10-05,2975.20661
2000-10-06,2975.20661
2000-10-07,2975.20661
2000-10-08,2955.3719
2000-10-09,2955.3719
2000-10-10,2955.3719
2000-10-11,2975.20661
2000-10-12,2955.3719
2000-10-13,2955.3719
2000-10-14,2955.3719
2000-10-15,2955.3719
2000-10-16,2955.3719
2000-10-17,2955.3719
2000-10-18,2955.3719
2000-10-19,2955.3719
2000-10-20,2955.3719
2000-10-21,2955.3719
2000-10-22,2955.3719
2000-10-23,2975.20661
2000-10-24,2975.20661
2000-10-25,2796.69421
2000-10-26,2638.01653
2000-10-27,2618.18182
2000-10-28,2598.34711
2000-10-29,2598.34711
2000-10-30,2538.84298
2000-10-31,2320.66116
2000-11-01,2062.80992
2000-11-02,1977.52066
2000-11-03,
2000-11-04,
2000-11-05,
2000-11-06,
2000-11-07,
2000-11-08,
2000-11-09,
2000-11-10,
2000-11-11,
2000-11-12,
2000-11-13,
2000-11-14,
2000-11-15,
2000-11-16,
2000-11-17,
2000-11-18,
2000-11-19,
2000-11-20,
2000-11-21,
2000-11-22,
2000-11-23,1644.29752
2000-11-24,1640.33058
2000-11-25,1634.38017
2000-11-26,1636.36364
2000-11-27,1632.39669
2000-11-28,1638.34711
2000-11-29,1636.36364
2000-11-30,1630.41322
2000-12-01,1634.38017
2000-12-02,1620.49587
2000-12-03,1618.5124
2000-12-04,1612.56198
2000-12-05,1618.5124
2000-12-06,1614.54545
2000-12-07,1618.5124
2000-12-08,1608.59504
2000-12-09,1612.56198
2000-12-10,1612.56198
2000-12-11,1620.49587
2000-12-12,1616.52893
2000-12-13,1604.6281
2000-12-14,1610.57851
2000-12-15,1612.56198
2000-12-16,1612.56198
2000-12-17,1644.29752
2000-12-18,1612.56198
2000-12-19,599.00826
2000-12-20,684.29752
2000-12-21,1602.64463